Location: Jackson Park
(37.2862°N, 79.9123°W)
Time: 01:47:10
(UTC+00:00)

SR - All Passes

Search period start: 14 May 2026 00:00
Search period end: 24 May 2026 00:00
Orbit: 568 x 852 km, 66.7° (Epoch: 12 May)

Date Brightness Start Highest point End Pass type
(mag) Time Alt. Az. Time Alt. Az. Time Alt. Az.
14 May - 12:08:33 10° SSW 12:13:09 66° ESE 12:18:13 10° NNE daylight
14 May - 13:52:22 10° W 13:55:26 16° NW 13:58:39 10° N daylight
14 May - 20:49:07 10° N 20:54:19 34° NE 20:59:30 10° ESE daylight
14 May - 22:30:49 10° NW 22:36:01 36° WSW 22:41:10 10° S daylight
15 May - 11:14:29 10° SSE 11:18:20 26° ESE 11:22:27 10° NE daylight
15 May - 12:55:30 10° WSW 12:59:48 33° NW 13:04:29 10° N daylight
15 May - 19:54:55 10° N 19:58:42 18° NE 20:02:30 10° E daylight
15 May - 21:35:17 10° NNW 21:41:03 80° WSW 21:46:47 10° SSE daylight
16 May - 11:59:48 10° SSW 12:04:30 78° WNW 12:09:39 10° NNE daylight
16 May - 13:45:31 10° WNW 13:47:11 11° NW 13:48:53 10° NNW daylight
16 May - 20:40:17 10° NNW 20:45:51 49° ENE 20:51:24 10° SE daylight
16 May - 22:22:44 10° NW 22:27:13 24° WSW 22:31:40 10° SSW daylight
17 May - 11:05:07 10° S 11:09:30 42° ESE 11:14:17 10° NE daylight
17 May - 12:47:33 10° WSW 12:51:23 23° NW 12:55:31 10° N daylight
17 May - 19:45:44 10° N 19:50:22 25° NE 19:55:01 10° ESE daylight
17 May - 21:26:47 10° NW 21:32:23 53° WSW 21:37:55 10° S daylight
18 May - 10:11:49 10° SE 10:14:48 17° ESE 10:17:57 10° ENE daylight
18 May - 11:51:19 10° SW 11:55:55 50° WNW 12:00:58 10° NNE daylight
18 May - 18:52:04 10° NNE 18:54:37 13° NE 18:57:10 10° ENE daylight
18 May - 20:31:32 10° NNW 20:37:19 72° ENE 20:43:01 10° SE daylight
18 May - 22:15:09 10° WNW 22:18:23 15° WSW 22:21:35 10° SW daylight
19 May - 10:56:06 10° SSW 11:00:46 68° ESE 11:05:53 10° NNE daylight
19 May - 12:39:59 10° W 12:43:04 16° NW 12:46:18 10° N daylight
19 May - 19:36:45 10° N 19:41:59 35° NE 19:47:11 10° ESE daylight
19 May - 21:18:29 10° NW 21:23:40 35° WSW 21:28:46 10° S daylight
20 May - 10:01:58 10° SSE 10:05:56 27° ESE 10:10:09 10° NE daylight
20 May - 11:43:05 10° WSW 11:47:25 33° NW 11:52:08 10° N daylight
20 May - 18:42:30 10° N 18:46:22 18° NE 18:50:13 10° E daylight
20 May - 20:22:55 10° NNW 20:28:43 78° WSW 20:34:24 10° SSE daylight
21 May - 09:10:41 10° ESE 09:11:20 10° E 09:12:00 10° E visible
21 May - 10:47:22 10° SSW 10:52:06 76° WNW 10:57:19 10° NNE daylight
21 May - 12:33:08 10° WNW 12:34:49 11° NW 12:36:32 10° NNW daylight
21 May - 19:27:54 10° NNW 19:33:30 50° ENE 19:39:02 10° SE daylight
21 May - 21:10:26 10° NW 21:14:52 23° WSW 21:19:14 10° SSW daylight
22 May - 09:52:39 10° S 09:57:06 43° ESE 10:01:57 10° NE daylight
22 May - 11:35:08 10° WSW 11:39:01 23° NW 11:43:09 10° N daylight
22 May - 18:33:20 10° N 18:38:02 25° NE 18:42:42 10° ESE daylight
22 May - 20:14:26 10° NW 20:20:02 52° WSW 20:25:31 10° S daylight
23 May - 08:59:16 10° SE 09:02:23 17° ESE 09:05:40 10° ENE visible
23 May - 10:38:53 10° SW 10:43:32 49° WNW 10:48:36 10° NNE daylight
23 May - 17:39:37 10° NNE 17:42:16 13° NE 17:44:55 10° ENE daylight
23 May - 19:19:11 10° NNW 19:24:58 73° ENE 19:30:39 10° SSE daylight
23 May - 21:02:52 10° WNW 21:06:00 15° WSW 21:09:05 10° SW daylight
